[[{"header":{"parameterUnit":"m.s-1","parameterCategory":1,"la1":30.2991,"la2":30.254,"lo1":-89.0895,"lo2":-89.0444,"dy":0.0017,"dx":0.0017,"nx":28,"ny":28,"refTime":"2024-06-21T03:00:00:Z","depth":0,"parameterNumber":2,"parameterNumberName":"U-component_of_WINDS"},"data":[0,0,0,0,0,0,0,0,0,0,0,0,0,0,0,0,0,0,0,0,0,0,0,0,0,0,0,0,0,0,0,0,0,0,0,0,0,0,0,0,0,0,0,0,0,0,0,0,0,0,0,0,0,0,0,0,0,0,-2.4596,-2.4596,0,-2.4567,-2.4567,-2.4566,-2.4463,-2.4461,-2.4459,-2.4457,-2.4429,-2.443,-2.4432,0,0,0,0,0,0,0,0,0,0,0,0,0,-2.4567,-2.4569,-2.4597,-2.4596,-2.4596,-2.4567,-2.4567,-2.4566,-2.4464,-2.4461,-2.4458,-2.4456,-2.4428,-2.443,-2.4432,0,0,0,0,0,0,0,0,0,0,0,0,0,-2.4563,-2.4569,-2.4597,-2.4541,-2.4536,-2.4567,-2.4567,-2.4566,-2.4464,-2.4461,-2.4457,-2.4454,-2.4428,-2.443,-2.4432,-2.4515,0,0,-2.4439,-2.4439,0,0,0,0,0,0,0,0,-2.4564,-2.4565,-2.455,-2.4545,-2.4539,-2.4515,-2.4546,-2.4549,-2.4465,-2.4492,-2.4457,-2.4452,-2.4461,-2.446,-2.4462,-2.4514,-2.4513,-2.4439,-2.444,-2.4441,-2.4442,0,0,0,0,0,0,0,-2.4564,-2.4565,-2.4585,-2.455,-2.4543,-2.4519,-2.4514,-2.4546,-2.4496,-2.4489,-2.4482,-2.4479,-2.4457,-2.446,-2.4461,-2.4512,-2.4439,-2.4441,-2.4442,-2.4443,-2.4632,-2.4636,0,0,0,0,0,0,-2.4572,-2.4566,-2.4586,-2.4584,-2.4543,-2.4522,-2.4517,-2.4527,-2.4495,-2.4487,-2.4482,-2.4475,-2.4458,-2.4458,-2.4459,-2.4555,-2.4441,-2.4443,-2.4444,-2.4629,-2.4633,-2.4637,0,0,0,0,0,0,-2.4572,-2.4575,-2.4587,-2.4573,-2.4573,-2.4526,-2.4538,-2.4528,-2.4531,-2.449,-2.4481,-2.4495,-2.4455,-2.4456,-2.4502,-2.4552,-2.4444,-2.4446,-2.4624,-2.463,-2.4635,-2.4747,0,0,0,0,0,0,-2.4571,-2.4575,-2.4605,-2.4574,-2.4574,-2.463,-2.4541,-2.453,-2.4534,-2.4524,-2.4499,-2.4492,-2.4453,-2.45,-2.4504,-2.4553,-2.4448,-2.4619,-2.4627,-2.4633,-2.4738,-2.4756,-2.477,0,0,0,0,0,-2.4571,-2.4638,-2.4607,-2.461,-2.461,-2.4633,-2.4632,-2.4585,-2.4539,-2.4569,-2.4544,-2.4493,-2.4547,-2.4505,-2.451,-2.456,-2.4616,-2.4625,-2.4633,-2.4731,-2.4752,-2.477,0,0,0,0,0,0,-2.4676,-2.4633,-2.4598,-2.4658,-2.465,-2.4615,-2.4652,-2.4609,-2.4614,-2.4604,-2.4547,-2.4542,-2.4596,-2.4583,-2.4537,-2.464,-2.4573,-2.4583,-2.4646,-2.4666,-2.4681,-2.4683,-2.4449,0,0,0,0,0,-2.4707,-2.4727,-2.4689,-2.4745,-2.4743,-2.4699,-2.4706,-2.4671,-2.4661,-2.4657,-2.4634,-2.4627,-2.4642,-2.4653,-2.4665,-2.4737,-2.473,-2.4774,-2.479,-2.4803,-2.4812,-2.485,-2.4869,-2.4665,-2.4665,-2.4665,0,0,-2.4769,-2.4748,-2.4765,-2.4766,-2.4755,-2.4779,-2.4696,-2.4724,-2.4742,-2.4661,-2.4703,-2.4687,-2.4675,-2.4734,-2.4759,-2.4725,-2.4867,-2.4814,-2.4825,-2.4826,-2.486,-2.488,-2.4897,-2.4671,-2.467,-2.4669,0,0,-2.4895,-2.4881,-2.4926,-2.4918,-2.4903,-2.4874,-2.4885,-2.4858,-2.4844,-2.4885,-2.4825,-2.4846,-2.4873,-2.4867,-2.4868,-2.4995,-2.4948,-2.5,-2.5083,-2.512,-2.5136,-2.515,-2.5196,-2.5213,-2.5009,-2.501,-2.501,0,-2.4974,-2.5007,-2.4956,-2.4988,-2.4991,-2.4919,-2.4966,-2.496,-2.4951,-2.4955,-2.4916,-2.495,-2.4937,-2.4994,-2.5025,-2.5028,-2.504,-2.5002,-2.5138,-2.5152,-2.5164,-2.5206,-2.5224,-2.5016,-2.5015,-2.5015,-2.5014,0,-2.5106,-2.513,-2.5168,-2.516,-2.5168,-2.5207,-2.5163,-2.5177,-2.5142,-2.5117,-2.5161,-2.5143,-2.5151,-2.5162,-2.5128,-2.5215,-2.5194,-2.5148,-2.5079,-2.5191,-2.523,-2.5245,-2.5025,-2.5023,-2.5021,-2.502,0,0,-2.5295,-2.526,-2.5275,-2.5271,-2.5251,-2.5268,-2.5306,-2.5313,-2.5326,-2.5323,-2.5353,-2.5379,-2.5336,-2.5337,-2.5302,-2.5336,-2.5438,-2.5285,-2.5284,-2.5314,-2.5533,-2.5568,-2.5587,-2.5407,-2.541,-2.5412,-2.5534,0,-2.5415,-2.5474,-2.5431,-2.5499,-2.5521,-2.5454,-2.5487,-2.5479,-2.5458,-2.5474,-2.5451,-2.547,-2.5412,-2.5412,-2.5442,-2.5419,-2.5481,-2.541,-2.5435,-2.5437,-2.5439,-2.5607,-2.5643,-2.5759,-2.5549,-2.5552,-2.5553,0,-2.5561,-2.5564,-2.5635,-2.5611,-2.5618,-2.5648,-2.5652,-2.5668,-2.5659,-2.5641,-2.5643,-2.56,-2.5636,-2.557,-2.562,-2.5573,-2.5581,-2.5572,-2.5575,-2.5575,-2.5501,-2.5612,-2.5795,-2.5812,-2.5577,-2.5575,-2.5573,0,-2.5692,-2.5714,-2.5759,-2.5758,-2.5732,-2.5754,-2.5745,-2.5731,-2.5739,-2.5743,-2.5747,-2.5755,-2.576,-2.5768,-2.5729,-2.5685,-2.5784,-2.5715,-2.5771,-2.5772,-2.5794,-2.5793,-2.5981,-2.5801,-2.5801,-2.58,-2.58,0,-2.5829,-2.5875,-2.5818,-2.5845,-2.5895,-2.5846,-2.5897,-2.588,-2.5869,-2.5894,-2.5838,-2.5862,-2.5809,-2.5829,-2.5799,-2.5845,-2.5847,-2.5835,-2.5826,-2.5839,-2.5841,-2.5843,-2.5834,-2.5805,-2.5804,-2.5803,-2.5802,0,-2.5983,-2.5947,-2.5992,-2.5964,-2.5958,-2.5996,-2.5972,-2.5997,-2.5973,-2.6004,-2.6009,-2.5971,-2.5991,-2.5953,-2.5969,-2.5949,-2.6013,-2.5993,-2.6016,-2.601,-2.6068,-2.6063,-2.6263,-2.6287,-2.6093,-2.6095,-2.6097,0,-2.6073,-2.6107,-2.6082,-2.6094,-2.6088,-2.6108,-2.6115,-2.6069,-2.6079,-2.6071,-2.6098,-2.6113,-2.6123,-2.6158,-2.6133,-2.6144,-2.6123,-2.6193,-2.6124,-2.6137,-2.6124,-2.6122,-2.6125,-2.6206,-2.6209,-2.6211,-2.6212,0,-2.6236,-2.6217,-2.6229,-2.6236,-2.6247,-2.625,-2.6249,-2.6263,-2.6213,-2.6228,-2.6247,-2.6255,-2.6271,-2.6287,-2.6293,-2.6284,-2.6241,-2.6234,-2.6248,-2.6261,-2.6273,-2.6267,-2.6054,-2.6229,-2.6228,-2.6226,-2.6225,-2.6225,-2.636,-2.6387,-2.6375,-2.6391,-2.6386,-2.6387,-2.641,-2.6388,-2.6404,-2.6412,-2.6384,-2.6411,-2.6402,-2.6405,-2.6401,-2.6422,-2.6391,-2.6411,-2.6416,-2.6421,-2.6431,-2.6271,-2.6423,-2.6423,-2.6422,-2.6422,-2.6421,0,-2.652,-2.6509,-2.6525,-2.6526,-2.6539,-2.6497,-2.6495,-2.6509,-2.6532,-2.6528,-2.6538,-2.6562,-2.6578,-2.6554,-2.6567,-2.6588,-2.6568,-2.6593,-2.659,-2.6589,-2.6458,-2.6444,-2.6608,-2.6608,-2.6608,-2.6608,-2.6608,-2.6608,-2.6605,-2.6649,-2.6628,-2.667,-2.6659,-2.6684,-2.6686,-2.6687,-2.6683,-2.6712,-2.6725,-2.6709,-2.6697,-2.6708,-2.6722,-2.6714,-2.6721,-2.6753,-2.6739,-2.6616,-2.6598,-2.6581,-2.6568,-2.6755,-2.6755,-2.6868,-2.6869,-2.687]},{"header":{"parameterUnit":"m.s-1","parameterCategory":1,"la1":30.2991,"la2":30.254,"lo1":-89.0895,"lo2":-89.0444,"dy":0.0017,"dx":0.0017,"nx":28,"ny":28,"refTime":"2024-06-21T03:00:00:Z","depth":0,"parameterNumber":3,"parameterNumberName":"V-component_of_WINDS"},"data":[0,0,0,0,0,0,0,0,0,0,0,0,0,0,0,0,0,0,0,0,0,0,0,0,0,0,0,0,0,0,0,0,0,0,0,0,0,0,0,0,0,0,0,0,0,0,0,0,0,0,0,0,0,0,0,0,0,0,3.3421,3.3422,0,3.3465,3.3465,3.3466,3.348,3.348,3.348,3.348,3.3521,3.3522,3.3523,0,0,0,0,0,0,0,0,0,0,0,0,0,3.3348,3.3349,3.3421,3.3422,3.3422,3.3464,3.3465,3.3466,3.3481,3.348,3.348,3.348,3.352,3.3522,3.3523,0,0,0,0,0,0,0,0,0,0,0,0,0,3.3384,3.335,3.3421,3.3435,3.3436,3.3464,3.3465,3.3466,3.3481,3.348,3.348,3.348,3.352,3.3522,3.3524,3.354,0,0,3.3529,3.353,0,0,0,0,0,0,0,0,3.3382,3.3387,3.3432,3.3434,3.3436,3.3467,3.3454,3.3491,3.3481,3.3464,3.348,3.348,3.3503,3.3506,3.3515,3.3542,3.3544,3.3529,3.3531,3.3531,3.3532,0,0,0,0,0,0,0,3.338,3.3385,3.3438,3.3433,3.3435,3.3438,3.3443,3.3461,3.3484,3.3465,3.3466,3.3471,3.3504,3.3513,3.3516,3.3544,3.3529,3.3531,3.3532,3.3533,3.3587,3.3588,0,0,0,0,0,0,3.3375,3.3383,3.3437,3.3439,3.3408,3.3439,3.3445,3.3457,3.3484,3.3488,3.3472,3.3472,3.351,3.3514,3.3517,3.3538,3.3531,3.3533,3.3534,3.3587,3.3587,3.3588,0,0,0,0,0,0,3.3374,3.338,3.3435,3.3412,3.3419,3.3441,3.3455,3.3458,3.3467,3.3489,3.3493,3.3477,3.351,3.3515,3.3535,3.354,3.3534,3.3536,3.3587,3.3587,3.3588,3.3581,0,0,0,0,0,0,3.3372,3.3379,3.3386,3.3412,3.342,3.3452,3.3455,3.3459,3.3471,3.3472,3.3495,3.3498,3.351,3.3532,3.3536,3.3542,3.3537,3.3586,3.3587,3.3587,3.358,3.3581,3.3581,0,0,0,0,0,3.3369,3.3382,3.3387,3.3393,3.3429,3.3453,3.3457,3.3472,3.3471,3.3478,3.3492,3.3498,3.3539,3.3534,3.3539,3.3546,3.3586,3.3587,3.3587,3.358,3.3581,3.3581,0,0,0,0,0,0,3.3355,3.3385,3.3391,3.3413,3.343,3.3455,3.3464,3.3471,3.3488,3.3488,3.3504,3.3509,3.3528,3.3539,3.3533,3.3563,3.3563,3.3564,3.3555,3.3556,3.3556,3.3553,3.3539,0,0,0,0,0,3.3355,3.3372,3.3397,3.3414,3.3422,3.3442,3.3452,3.3462,3.348,3.3487,3.3503,3.3519,3.3536,3.3547,3.3563,3.3582,3.3587,3.359,3.359,3.359,3.3591,3.3602,3.3604,3.359,3.359,3.359,0,0,3.3353,3.3372,3.3382,3.3411,3.3426,3.3443,3.3448,3.3465,3.3478,3.349,3.351,3.3522,3.3541,3.3561,3.357,3.3571,3.3596,3.3591,3.3591,3.3592,3.3603,3.3605,3.3606,3.3591,3.3591,3.3591,0,0,3.336,3.3376,3.3392,3.3407,3.343,3.3443,3.3447,3.3471,3.348,3.3501,3.3511,3.3525,3.3554,3.3567,3.3578,3.3591,3.3597,3.3596,3.3597,3.3608,3.3609,3.361,3.3615,3.3616,3.3597,3.3597,3.3597,0,3.3356,3.3383,3.3399,3.3417,3.3429,3.3443,3.3458,3.3472,3.3498,3.3506,3.3506,3.3543,3.3557,3.358,3.3584,3.3592,3.3596,3.3593,3.3608,3.3609,3.361,3.3615,3.3617,3.3597,3.3597,3.3597,3.3597,0,3.3376,3.3395,3.3405,3.3432,3.3445,3.3462,3.348,3.3492,3.35,3.3513,3.3534,3.3551,3.3572,3.3578,3.3586,3.3603,3.3602,3.3605,3.3605,3.3611,3.3616,3.3618,3.3597,3.3597,3.3597,3.3597,0,0,3.3374,3.3412,3.3415,3.3428,3.3454,3.3468,3.3485,3.3507,3.3516,3.3534,3.3548,3.3573,3.3576,3.3588,3.3598,3.3607,3.3617,3.3609,3.3609,3.3609,3.3636,3.3634,3.3635,3.3621,3.3621,3.3622,3.3634,0,3.3385,3.3417,3.3433,3.3458,3.3475,3.3488,3.3503,3.352,3.3533,3.3549,3.3562,3.3579,3.3582,3.3589,3.3599,3.3613,3.3622,3.3613,3.3633,3.3634,3.3628,3.3638,3.3635,3.3646,3.3636,3.3636,3.3637,0,3.3401,3.3421,3.3448,3.3473,3.3481,3.3494,3.3515,3.353,3.355,3.3559,3.3573,3.3583,3.36,3.3599,3.3623,3.3617,3.3626,3.3634,3.3635,3.3637,3.3635,3.364,3.365,3.3652,3.364,3.3639,3.3639,0,3.3397,3.343,3.3451,3.3461,3.3491,3.35,3.3513,3.3533,3.3545,3.3563,3.3571,3.3591,3.3601,3.3616,3.363,3.3628,3.3653,3.3653,3.366,3.3659,3.3664,3.3663,3.3676,3.3671,3.3671,3.367,3.367,0,3.3407,3.3423,3.345,3.3463,3.3481,3.3499,3.3516,3.3529,3.3547,3.3562,3.3574,3.3587,3.3606,3.3621,3.3633,3.3651,3.3656,3.3662,3.3665,3.3661,3.366,3.3667,3.3667,3.3671,3.3671,3.3671,3.3671,0,3.3406,3.3425,3.3448,3.3475,3.3482,3.3495,3.3517,3.353,3.3543,3.3562,3.3567,3.3588,3.3607,3.3623,3.3648,3.3655,3.3674,3.3677,3.3668,3.3669,3.3675,3.3674,3.3692,3.3695,3.3688,3.3688,3.3688,0,3.3411,3.3424,3.3453,3.3465,3.3478,3.3496,3.3509,3.3526,3.3539,3.3563,3.3573,3.3593,3.361,3.364,3.3656,3.3675,3.3679,3.3684,3.3682,3.3678,3.3679,3.3678,3.3679,3.3684,3.3684,3.3684,3.3684,0,3.3418,3.3427,3.3446,3.3468,3.3484,3.3502,3.352,3.3528,3.3549,3.3563,3.3583,3.3597,3.3622,3.3642,3.3663,3.3675,3.3683,3.3684,3.3687,3.3683,3.3677,3.368,3.3668,3.3684,3.3684,3.3684,3.3684,3.3684,3.342,3.3433,3.3455,3.3476,3.3492,3.3509,3.3522,3.3538,3.3555,3.3579,3.3588,3.3609,3.3628,3.3657,3.367,3.3685,3.3686,3.369,3.3691,3.3692,3.3691,3.3675,3.3689,3.3689,3.3689,3.3689,3.3689,0,3.3428,3.3443,3.3462,3.3488,3.3504,3.3512,3.3532,3.3545,3.3564,3.3582,3.3599,3.3622,3.3642,3.366,3.368,3.369,3.3694,3.3694,3.3693,3.3696,3.3689,3.3685,3.3691,3.3691,3.3691,3.3691,3.3691,3.3691,3.3434,3.3455,3.3467,3.3496,3.3511,3.3533,3.3544,3.3559,3.3574,3.36,3.3617,3.3629,3.3648,3.3669,3.3687,3.3692,3.3699,3.3698,3.3704,3.3697,3.3697,3.3696,3.3692,3.37,3.37,3.371,3.371,3.371]}]]